YD6HRD-13 Weather Reports


time (UTC)temp
C
wind
direction
speed
KPH
gust
KPH
rain 1hr
cm
rain 24hr
cm
rain mn
cm
humidity
%
barometer
mb
20260504223723 26 0.0 0.0 0.00 0.00 0.00 89 1019.5
20260504223223 26 0.0 0.0 0.00 0.00 0.00 89 1019.5
20260504222722 26 0.0 0.0 0.00 0.00 0.00 89 1019.4
20260504222223 26 0.0 0.0 0.00 0.00 0.00 89 1019.4
20260504221723 26 0.0 0.0 0.00 0.00 0.00 89 1019.3
20260504221223 26 0.0 0.0 0.00 0.00 0.00 89 1019.2
20260504220722 26 0.0 0.0 0.00 0.00 0.00 89 1019.1
20260504220223 26 0.0 0.0 0.00 0.00 0.00 89 1019.1
20260504215723 26 0.0 0.0 0.00 0.00 0.00 89 1019.1
20260504215222 26 0.0 0.0 0.00 0.00 0.00 89 1019.1
20260504214723 26 0.0 0.0 0.00 0.00 0.00 89 1019.2
20260504214223 26 0.0 0.0 0.00 0.00 0.00 89 1019.2
20260504213723 26 0.0 0.0 0.00 0.00 0.00 89 1019.2
20260504213222 26 0.0 0.0 0.00 0.00 0.00 89 1019.3
20260504212723 26 0.0 0.0 0.00 0.00 0.00 89 1019.3
20260504212223 26 0.0 0.0 0.00 0.00 0.00 89 1019.3
20260504211722 26 0.0 0.0 0.00 0.00 0.00 89 1019.2
20260504211223 26 0.0 0.0 0.00 0.00 0.00 89 1019.3
20260504210722 26 0.0 0.0 0.00 0.00 0.00 89 1019.4
20260504210223 26 0.0 0.0 0.00 0.00 0.00 89 1019.4
20260504205722 26 0.0 0.0 0.00 0.00 0.00 89 1019.5
20260504205223 26 0.0 0.0 0.00 0.00 0.00 89 1019.5
20260504204723 26 0.0 0.0 0.00 0.00 0.00 89 1019.5
20260504204222 26 0.0 0.0 0.00 0.00 0.00 89 1019.5
20260504203723 26 0.0 0.0 0.00 0.00 0.00 89 1019.6
20260504203222 26 0.0 0.0 0.00 0.00 0.00 89 1019.6
20260504202723 27 0.0 0.0 0.00 0.00 0.00 88 1019.6
20260504202223 27 0.0 0.0 0.00 0.00 0.00 88 1019.6
20260504201723 26 0.0 0.0 0.00 0.00 0.00 89 1019.7
20260504201223 27 0.0 0.0 0.00 0.00 0.00 88 1019.6
20260504200722 27 0.0 0.0 0.00 0.00 0.00 89 1019.7
20260504200223 26 0.0 0.0 0.00 0.00 0.00 89 1019.7
20260504195722 27 0.0 0.0 0.00 0.00 0.00 88 1019.7
20260504195223 27 0.0 0.0 0.00 0.00 0.00 88 1019.6
20260504194722 26 0.0 0.0 0.00 0.00 0.00 89 1019.6
20260504194223 27 0.0 0.0 0.00 0.00 0.00 88 1019.6
20260504193722 27 0.0 0.0 0.00 0.00 0.00 88 1019.7
20260504193223 27 0.0 0.0 0.00 0.00 0.00 88 1019.7
20260504192722 27 0.0 0.0 0.00 0.00 0.00 88 1019.7
20260504192223 27 0.0 0.0 0.00 0.00 0.00 88 1019.7
20260504191723 27 0.0 0.0 0.00 0.00 0.00 88 1019.7
20260504191222 27 0.0 0.0 0.00 0.00 0.00 88 1019.7
20260504190723 27 0.0 0.0 0.00 0.00 0.00 88 1019.7
20260504190223 27 0.0 0.0 0.00 0.00 0.00 87 1019.8
20260504185723 27 0.0 0.0 0.00 0.00 0.00 87 1019.8
20260504185222 27 0.0 0.0 0.00 0.00 0.00 87 1019.9
20260504184723 27 0.0 0.0 0.00 0.00 0.00 87 1020.0
20260504184223 27 0.0 0.0 0.00 0.00 0.00 87 1020.0
20260504183722 27 0.0 0.0 0.00 0.00 0.00 87 1020.1
20260504183223 27 0.0 0.0 0.00 0.00 0.00 86 1020.1
20260504182723 27 0.0 0.0 0.00 0.00 0.00 86 1020.2
20260504182223 27 0.0 0.0 0.00 0.00 0.00 87 1020.3
20260504181722 27 0.0 0.0 0.00 0.00 0.00 89 1020.4
20260504181223 26 0.0 0.0 0.00 0.00 0.00 90 1020.5
20260504180723 26 0.0 0.0 0.00 0.00 0.00 89 1020.6
20260504180222 26 0.0 0.0 0.00 0.00 0.00 89 1020.7
20260504175723 27 0.0 0.0 0.00 0.00 0.00 87 1020.7
20260504175223 27 0.0 0.0 0.00 0.00 0.00 89 1020.7
20260504174723 27 0.0 0.0 0.00 0.00 0.00 87 1020.8
20260504174223 27 0.0 0.0 0.00 0.00 0.00 88 1020.9
20260504173723 27 0.0 0.0 0.00 0.00 0.00 86 1020.9
20260504173223 27 0.0 0.0 0.00 0.00 0.00 87 1021.0
20260504172722 27 0.0 0.0 0.00 0.00 0.00 87 1021.2
20260504172223 27 0.0 0.0 0.00 0.00 0.00 87 1021.2
20260504171723 27 0.0 0.0 0.00 0.00 0.00 88 1021.2
20260504171223 27 0.0 0.0 0.00 0.00 0.00 87 1021.2
20260504170722 27 0.0 0.0 0.00 0.00 0.00 87 1021.2
20260504170223 27 0.0 0.0 0.00 0.00 0.00 87 1021.1
20260504160223 28 0.0 0.0 0.00 0.00 0.00 85 1020.9
20260504150723 27 0.0 0.0 0.00 0.00 0.00 85 1021.1
20260504150222 27 0.0 0.0 0.00 0.00 0.00 85 1021.1
20260504141223 27 0.0 0.0 0.00 0.00 0.00 84 1021.2
20260504140722 28 0.0 0.0 0.00 0.00 0.00 83 1021.1
20260504140223 28 0.0 0.0 0.00 0.00 0.00 83 1021.0
20260504130724 28 0.0 0.0 0.00 0.00 0.00 82 1020.0
20260504130223 28 0.0 0.0 0.00 0.00 0.00 82 1019.8
20260504120222 28 0.0 0.0 0.00 0.00 0.00 81 1019.0
20260504110222 29 0.0 0.0 0.00 0.00 0.00 80 1017.8
20260504100222 29 0.0 0.0 0.00 0.00 0.00 78 1018.1
20260504081722 28 0.0 0.0 0.00 0.00 0.00 86 1018.8
20260504081222 28 0.0 0.0 0.00 0.00 0.00 86 1018.7
20260504080222 28 0.0 0.0 0.00 0.00 0.00 87 1019.0
20260504070222 27 0.0 0.0 0.00 0.00 0.00 90 1020.2
20260504060222 27 0.0 0.0 0.00 0.00 0.00 93 1021.4
20260504050722 26 0.0 0.0 0.00 0.00 0.00 93 1023.3
20260504050222 26 0.0 0.0 0.00 0.00 0.00 94 1023.4
20260504045722 26 0.0 0.0 0.00 0.00 0.00 94 1023.3
20260504045222 27 0.0 0.0 0.00 0.00 0.00 93 1023.3
20260504044722 27 0.0 0.0 0.00 0.00 0.00 92 1023.4
20260504044223 26 0.0 0.0 0.00 0.00 0.00 93 1023.3
20260504043722 26 0.0 0.0 0.00 0.00 0.00 96 1023.2
20260504043222 26 0.0 0.0 0.00 0.00 0.00 93 1023.3
20260504042722 27 0.0 0.0 0.00 0.00 0.00 91 1023.2
20260504042222 26 0.0 0.0 0.00 0.00 0.00 93 1023.2
20260504041722 25 0.0 0.0 0.00 0.00 0.00 96 1023.1
20260504041222 26 0.0 0.0 0.00 0.00 0.00 92 1022.9
20260504040722 26 0.0 0.0 0.00 0.00 0.00 95 1023.0
20260504040222 26 0.0 0.0 0.00 0.00 0.00 94 1023.5
20260504035722 26 0.0 0.0 0.00 0.00 0.00 93 1023.7
20260504035222 25 0.0 0.0 0.00 0.00 0.00 99 1023.9
20260504034723 25 0.0 0.0 0.00 0.00 0.00 98 1023.9
20260504034222 26 0.0 0.0 0.00 0.00 0.00 92 1023.7
20260504033722 26 0.0 0.0 0.00 0.00 0.00 94 1023.8
20260504033222 26 0.0 0.0 0.00 0.00 0.00 92 1023.8
20260504032722 26 0.0 0.0 0.00 0.00 0.00 94 1023.7
20260504032222 27 0.0 0.0 0.00 0.00 0.00 90 1023.5
20260504031722 27 0.0 0.0 0.00 0.00 0.00 90 1023.4
20260504031222 26 0.0 0.0 0.00 0.00 0.00 93 1023.4
20260504030722 28 0.0 0.0 0.00 0.00 0.00 89 1023.0
20260504030222 28 0.0 0.0 0.00 0.00 0.00 89 1022.8
20260504025722 28 0.0 0.0 0.00 0.00 0.00 89 1022.7
20260504025222 28 0.0 0.0 0.00 0.00 0.00 89 1022.7
20260504024722 28 0.0 0.0 0.00 0.00 0.00 89 1022.8
20260504024222 28 0.0 0.0 0.00 0.00 0.00 89 1022.9
20260504023722 28 0.0 0.0 0.00 0.00 0.00 89 1022.9
20260504023222 28 0.0 0.0 0.00 0.00 0.00 90 1023.0
20260504022722 28 0.0 0.0 0.00 0.00 0.00 90 1023.1
20260504022222 28 0.0 0.0 0.00 0.00 0.00 90 1023.1
20260504021722 28 0.0 0.0 0.00 0.00 0.00 90 1022.9
20260504021222 28 0.0 0.0 0.00 0.00 0.00 90 1022.8
20260504020722 28 0.0 0.0 0.00 0.00 0.00 90 1022.7
20260504020222 28 0.0 0.0 0.00 0.00 0.00 90 1022.5
20260504015722 28 0.0 0.0 0.00 0.00 0.00 90 1022.2
20260504015222 28 0.0 0.0 0.00 0.00 0.00 89 1022.2
20260504014722 27 0.0 0.0 0.00 0.00 0.00 90 1022.2
20260504014222 27 0.0 0.0 0.00 0.00 0.00 89 1022.1
20260504013722 27 0.0 0.0 0.00 0.00 0.00 89 1022.0
20260504013222 27 0.0 0.0 0.00 0.00 0.00 90 1021.8
20260504012722 27 0.0 0.0 0.00 0.00 0.00 89 1021.7
20260504012222 27 0.0 0.0 0.00 0.00 0.00 89 1021.6
20260504011722 27 0.0 0.0 0.00 0.00 0.00 90 1021.6
20260504011222 27 0.0 0.0 0.00 0.00 0.00 89 1021.6
20260504010722 27 0.0 0.0 0.00 0.00 0.00 89 1021.5
20260504010222 27 0.0 0.0 0.00 0.00 0.00 89 1021.5
20260504005722 27 0.0 0.0 0.00 0.00 0.00 90 1021.5
20260504005222 27 0.0 0.0 0.00 0.00 0.00 89 1021.6
20260504004722 27 0.0 0.0 0.00 0.00 0.00 89 1021.5
20260504004222 27 0.0 0.0 0.00 0.00 0.00 90 1021.4
20260504003722 27 0.0 0.0 0.00 0.00 0.00 89 1021.2
20260504003222 27 0.0 0.0 0.00 0.00 0.00 89 1021.1
20260504002722 27 0.0 0.0 0.00 0.00 0.00 89 1021.1
20260504002222 27 0.0 0.0 0.00 0.00 0.00 89 1021.0
20260504001722 27 0.0 0.0 0.00 0.00 0.00 89 1021.0
20260504001222 27 0.0 0.0 0.00 0.00 0.00 89 1020.9
20260504000722 27 0.0 0.0 0.00 0.00 0.00 89 1020.9
20260504000222 27 0.0 0.0 0.00 0.00 0.00 89 1020.8
20260503235722 27 0.0 0.0 0.00 0.00 0.00 89 1020.7
20260503235222 27 0.0 0.0 0.00 0.00 0.00 89 1020.8
20260503234722 27 0.0 0.0 0.00 0.00 0.00 89 1020.8
20260503234222 27 0.0 0.0 0.00 0.00 0.00 89 1020.7
20260503233722 27 0.0 0.0 0.00 0.00 0.00 88 1020.7
20260503233222 28 0.0 0.0 0.00 0.00 0.00 88 1020.4
20260503232722 27 0.0 0.0 0.00 0.00 0.00 88 1020.3
20260503232222 27 0.0 0.0 0.00 0.00 0.00 88 1020.3
20260503231722 27 0.0 0.0 0.00 0.00 0.00 90 1020.3
20260503231222 27 0.0 0.0 0.00 0.00 0.00 89 1020.3
20260503230722 27 0.0 0.0 0.00 0.00 0.00 89 1020.1
20260503230222 27 0.0 0.0 0.00 0.00 0.00 89 1020.1
20260503225722 27 0.0 0.0 0.00 0.00 0.00 89 1020.0
20260503225222 27 0.0 0.0 0.00 0.00 0.00 88 1019.9
20260503224722 27 0.0 0.0 0.00 0.00 0.00 88 1020.0
20260503224222 27 0.0 0.0 0.00 0.00 0.00 88 1020.0